Location: Dannhausen
(51.8650°N, 10.1026°E)
Time: 07:57:15
(UTC+00:00)

Cosmos 2233 Rocket - Visible Passes

Search period start: 11 August 2020 00:00
Search period end: 21 August 2020 00:00
Orbit: 954 x 990 km, 82.9° (Epoch: 10 August)

Date Brightness Start Highest point End Pass type
(mag) Time Alt. Az. Time Alt. Az. Time Alt. Az.
11 Aug 5.4 00:02:48 18° WSW 00:06:17 29° WNW 00:11:43 10° N visible
11 Aug 5.5 20:57:46 17° ESE 21:00:12 21° E 21:04:46 10° NNE visible
11 Aug 4.0 22:42:20 41° SSW 22:44:46 82° W 22:51:09 10° N visible
12 Aug 6.0 00:26:55 10° W 00:31:09 19° WNW 00:35:32 10° NNW visible
12 Aug 4.9 21:21:53 26° ESE 21:24:09 34° E 21:29:44 10° NNE visible
12 Aug 4.5 23:06:28 31° SW 23:09:14 52° WNW 23:15:26 10° N visible
13 Aug 6.3 00:53:41 10° WNW 00:56:12 12° NW 00:58:45 10° NNW visible
13 Aug 6.0 20:03:32 10° ENE 20:04:24 10° ENE 20:05:15 10° ENE visible
13 Aug 4.3 21:45:59 36° SSE 21:48:14 54° E 21:54:23 10° NNE visible
13 Aug 5.2 23:30:33 21° WSW 23:33:52 34° WNW 23:39:33 10° N visible
14 Aug 5.6 20:25:29 14° ESE 20:28:07 18° ENE 20:32:07 10° NE visible
14 Aug 3.9 22:10:04 41° S 22:12:30 85° E 22:18:52 10° N visible
14 Aug 5.8 23:54:39 13° WSW 23:58:40 22° WNW 00:03:30 10° N visible
15 Aug 5.1 20:49:34 22° ESE 20:52:01 28° E 20:57:16 10° NNE visible
15 Aug 4.3 22:34:08 34° SW 22:36:54 62° WNW 22:43:12 10° N visible
16 Aug 6.3 00:20:17 10° W 00:23:39 15° NW 00:27:02 10° NNW visible
16 Aug 4.4 21:13:37 31° SE 21:16:03 45° E 21:22:01 10° NNE visible
16 Aug 5.0 22:58:12 24° WSW 23:01:28 39° WNW 23:07:23 10° N visible
17 Aug 5.7 19:53:05 11° ESE 19:56:04 15° ENE 19:59:19 10° NE visible
17 Aug 4.0 21:37:40 38° S 21:40:15 72° E 21:46:34 10° NNE visible
17 Aug 5.7 23:22:14 15° WSW 23:26:13 26° WNW 23:31:25 10° N visible
18 Aug 5.2 20:17:07 18° ESE 20:19:54 24° E 20:24:46 10° NNE visible
18 Aug 4.1 22:01:41 34° SSW 22:04:36 73° WNW 22:10:57 10° N visible
18 Aug 6.2 23:47:08 10° W 23:51:07 17° NW 23:55:08 10° NNW visible
19 Aug 4.6 20:41:07 26° SE 20:43:53 38° E 20:49:38 10° NNE visible
19 Aug 4.8 22:25:41 25° SW 22:29:06 46° WNW 22:35:12 10° N visible
20 Aug 6.5 00:14:35 10° WNW 00:16:14 11° NW 00:17:53 10° NNW visible
20 Aug 5.8 19:21:49 10° E 19:24:01 12° ENE 19:26:14 10° NE visible
20 Aug 4.1 21:05:06 32° SSE 21:08:01 61° E 21:14:14 10° NNE visible
20 Aug 5.5 22:49:40 16° WSW 22:53:46 30° WNW 22:59:16 10° N visible
